Weather History for KSLN - October, 2013

Change the Weather History Date:

Friday, October 11, 2013

  Actual Average Record
Temperature  
Mean Temperature 69 °F 59 °F  
Max Temperature 83 °F 71 °F 94 °F (1975)
Min Temperature 54 °F 48 °F 28 °F (1919)
Degree Days  
Heating Degree Days 0 7  
Month to date heating degree days 24 65  
Since 1 July heating degree days 36 117  
Cooling Degree Days 4 1  
Month to date cooling degree days 55 22  
Year to date cooling degree days 1750 1634  
Growing Degree Days 21 (Base 50)    
Moisture  
Dew Point 47 °F    
Average Humidity 47    
Maximum Humidity 78    
Minimum Humidity 15    
Precipitation  
Precipitation 0.01 in 0.08 in 2.56 in (1973)
Month to date precipitation 0.04 0.91  
Year to date precipitation 27.91 27.95  
Sea Level Pressure  
Sea Level Pressure 29.74 in    
Wind  
Wind Speed 15 mph (SW)    
Max Wind Speed 24 mph    
Max Gust Speed 35 mph    
Visibility 10 miles    
Events Rain    
T = Trace of Precipitation, MM = Missing Value Source: NWS Daily Summary

Daily Weather History Graph

Daily Weather History Graph

Search for Another Location

Airport or City:

Trip Planner

Search our weather history database for the weather conditions in past years. The results will help you decide how hot, cold, wet, or windy it might be!

Date:

Astronomy

Oct. 11, 2013 Rise Set
Actual Time 7:36 AM CDT 6:57 PM CDT
Civil Twilight 7:09 AM CDT 7:24 PM CDT
Nautical Twilight 6:38 AM CDT 7:55 PM CDT
Astronomical Twilight 6:07 AM CDT 8:25 PM CDT
Moon 2:17 PM CDT (10/11) No Moon Set
Length of Visible Light 12h 14m
Length of Day
11h 21m
Waxing Crescent, 47% of the Moon is Illuminated
Oct 11
Waxing Crescent
Oct 11
First Quarter
Oct 18
Full
Oct 26
Last Quarter
Nov 3
New

Hourly Weather History & Observations

Time (CDT) Temp. Dew Point Humidity Pressure Visibility Wind Dir Wind Speed Gust Speed Precip Events Conditions
12:53 AM 70.0 °F 55.0 °F 59% 29.71 in 10.0 mi South 19.6 mph 28.8 mph N/A   Clear
1:53 AM 70.0 °F 54.0 °F 57% 29.73 in 10.0 mi South 19.6 mph 29.9 mph N/A   Partly Cloudy
2:53 AM 69.1 °F 54.0 °F 58% 29.73 in 10.0 mi South 17.3 mph 29.9 mph N/A   Mostly Cloudy
3:53 AM 64.9 °F 57.0 °F 75% 29.72 in 10.0 mi South 15.0 mph 23.0 mph 0.01 in Rain Light Rain
4:53 AM 64.9 °F 57.0 °F 75% 29.69 in 10.0 mi SSE 15.0 mph 20.7 mph 0.00 in   Mostly Cloudy
5:53 AM 64.9 °F 55.9 °F 73% 29.66 in 10.0 mi South 19.6 mph 28.8 mph N/A   Clear
6:53 AM 66.0 °F 57.0 °F 73% 29.66 in 10.0 mi South 19.6 mph 29.9 mph N/A   Scattered Clouds
7:53 AM 64.9 °F 57.0 °F 75% 29.67 in 10.0 mi South 15.0 mph 23.0 mph N/A   Clear
8:53 AM 66.0 °F 57.9 °F 75% 29.69 in 10.0 mi South 17.3 mph 26.5 mph N/A   Clear
9:53 AM 70.0 °F 57.9 °F 65% 29.69 in 10.0 mi SSW 24.2 mph 31.1 mph N/A   Clear
10:53 AM 73.9 °F 52.0 °F 46% 29.70 in 10.0 mi SW 18.4 mph 29.9 mph N/A   Clear
11:53 AM 77.0 °F 46.0 °F 33% 29.71 in 10.0 mi SW 13.8 mph - N/A   Clear
12:53 PM 79.0 °F 39.0 °F 24% 29.70 in 10.0 mi SW 17.3 mph 25.3 mph N/A   Clear
1:53 PM 81.0 °F 35.1 °F 19% 29.69 in 10.0 mi SSW 13.8 mph 21.9 mph N/A   Clear
2:53 PM 82.0 °F 30.9 °F 16% 29.68 in 10.0 mi SW 18.4 mph 25.3 mph N/A   Clear
3:53 PM 81.0 °F 30.0 °F 16% 29.70 in 10.0 mi WSW 11.5 mph 19.6 mph N/A   Clear
4:53 PM 80.1 °F 30.9 °F 17% 29.71 in 10.0 mi SW 10.4 mph - N/A   Clear
5:53 PM 78.1 °F 36.0 °F 22% 29.74 in 10.0 mi West 10.4 mph - N/A   Clear
6:53 PM 72.0 °F 39.0 °F 30% 29.77 in 10.0 mi West 6.9 mph - N/A   Clear
7:53 PM 66.0 °F 42.1 °F 42% 29.81 in 10.0 mi NW 10.4 mph - N/A   Clear
8:53 PM 64.0 °F 45.0 °F 50% 29.85 in 10.0 mi NW 10.4 mph - N/A   Clear
9:53 PM 62.1 °F 44.1 °F 52% 29.88 in 10.0 mi NW 9.2 mph - N/A   Clear
10:53 PM 60.1 °F 44.1 °F 55% 29.91 in 10.0 mi NNW 12.7 mph - N/A   Clear
11:53 PM 57.9 °F 43.0 °F 58% 29.92 in 10.0 mi NNW 9.2 mph - N/A   Clear